Weather Roundup
Issued by NWS Chicago, IL

Home | Current Version | Previous Version | Text Only | Print | Product List | Glossary On
Versions: 1 2 3 4 5 6 7 8 9 10 11 12 13 14 15 16 17 18 19 20 21 22 23 24 25 26 27 28 29 30 31 32 33 34 35 36 37 38 39 40 41 42 43 44 45 46 47 48 49 50
000
NZUS59 KLOT 070210
HRRLOT

CHICAGO AREA WEATHER ROUNDUP
NATIONAL WEATHER SERVICE CHICAGO/ROMEOVILLE IL
800 PM CST FRI MAR 06 2015

NOTE: "FAIR" INDICATES FEW OR NO CLOUDS BELOW 12,000 FEET WITH NO
SIGNIFICANT WEATHER AND/OR OBSTRUCTIONS TO VISIBILITY.

* THESE STATIONS ARE NOT UNDER NWS QUALITY CONTROL. THEY ALSO MAY NOT
  REPORT WEATHER SUCH AS PRECIPITATION OR FOG.

ILZ005-006-012>014-019>023-070300-
NORTHEAST ILLINOIS

CITY           SKY/WX    TMP DP  RH WIND       PRES   REMARKS
OHARE          PTCLDY    25  17  72 SW17G24   30.16F WCI  12
MIDWAY         PTCLDY    25  16  68 SW15G23   30.19F WCI  13
AURORA         CLEAR     23  15  71 S12       30.17F WCI  12
LANSING*       CLEAR     22  15  74 SW14      30.21F WCI   9
JOLIET*        CLEAR     24  17  75 S10       30.20F WCI  13
WAUKEGAN       CLEAR     23  17  78 SW16      30.13S WCI  10
DUPAGE AIRPORT CLEAR     22  16  78 S14       30.16F WCI   9
WHEELING       CLEAR     25  17  72 SW10G22   30.17F WCI  15
KANKAKEE*      CLEAR     21  15  76 S16       30.24F WCI   7
MORRIS*        CLEAR     22  18  83 S10       30.19F WCI  11
LEWIS AIRPORT* CLEAR     22  17  79 S13       30.19F WCI  10
NORTHERLY IS     N/A     25  16  68 S10         N/A  WCI  15
$$

WIZ051-052-058>065-066-070>072-070300-
SOUTHEAST WISCONSIN

CITY           SKY/WX    TMP DP  RH WIND       PRES   REMARKS
MILWAUKEE      PTCLDY    24  15  68 SW7       30.12R WCI  16
KENOSHA*       CLEAR     25  17  72 SW14G23   30.12S WCI  13
RACINE*        CLEAR     25  16  68 SW9       30.14S WCI  15
BURLINGTON     CLEAR     21  15  79 SW6       30.12S WCI  13
WAUKESHA       CLEAR     25  16  68 SW7       30.10S WCI  17
WEST BEND      CLEAR     25  16  68 SW9       30.08S WCI  15
$$

INZ001>003-010>013-019-020-070300-
NORTHWEST INDIANA

CITY           SKY/WX    TMP DP  RH WIND       PRES   REMARKS
GARY*          CLEAR     25  12  58 SW9G28    30.21F WCI  15
MICHIGAN CITY* NOT AVBL
RENSSELAER*    NOT AVBL
VALPARAISO     CLEAR     20  12  71 SW14      30.22F WCI   7
$$

LMZ740>746-070300-
SOUTHERN LAKE MICHIGAN

STATION/POSITION TIME  SKY/WX   TEMP WIND        PRES    VSBY
                                AIR  DIR/SP/G
                 (UTC)          (F)  (DEG/KT/KT) (MB)    (MI)
HARRISON CRIB    0200            25  210/ 28/ 38   N/A
BURNHAM HARBOR   0200            25  230/  9/ 15   N/A
CALUMET HARBOR   0200                200/ 13/ 20 1021.0F
BURNS HARBOR     NOT AVBL
MICHIGAN CITY    0200            23  180/ 16/ 22   N/A
$$

ABBREVIATIONS USED IN REMARKS
   TC - TEMPERATURE IN CELSIUS
  WCI - WIND CHILL INDEX
   HX - HEAT INDEX
  VSB - VISIBILITY
$$


USA.gov is the U.S. government's official web portal to all federal, state and local government web resources and services.